Regional Weather Roundup
Issued by NWS Sioux Falls, SD

Home | Current Version | Previous Version | Graphics & Text | Print | Product List | Glossary Off
Versions: 1 2 3 4 5 6 7 8 9 10 11 12 13 14 15 16 17 18 19 20 21 22 23 24 25 26 27 28 29 30 31 32 33 34 35 36 37 38 39 40 41 42 43 44 45 46 47 48 49 50

000
ASUS43 KFSD 201402
RWRFSD

WEATHER ROUNDUP FOR SE SOUTH DAKOTA/SW MINNESOTA/NW IOWA
NATIONAL WEATHER SERVICE SIOUX FALLS SD
900 AM CDT MON OCT 20 2014

NOTE: "FAIR" INDICATES FEW OR NO CLOUDS BELOW 12,000 FEET WITH NO
SIGNIFICANT WEATHER AND OR OBSTRUCTIONS TO VISIBILITY.


SDZ038>040-050-052>070-201500-
SOUTHEAST SOUTH DAKOTA

CITY           SKY/WX    TMP DP  RH WIND       PRES   REMARKS
CHAMBERLAIN    PTCLDY    35  33  90 CALM      30.11R
HURON          SUNNY     40  35  83 CALM      30.10R
MADISON        FAIR      45  39  81 NW7       30.09R
MITCHELL       MOSUNNY   42  36  79 CALM      30.11R
SIOUX FALLS    SUNNY     44  40  85 CALM      30.09R
WINNER         FAIR      45  36  70 SE3       30.11R
YANKTON        SUNNY     43  39  87 W6        30.11R
$$

MNZ071-072-080-081-089-090-097-098-201500-
SOUTHWEST MINNESOTA

CITY           SKY/WX    TMP DP  RH WIND       PRES   REMARKS
FAIRMONT       SUNNY     48  37  66 NW14      30.03R
JACKSON        SUNNY     48  37  66 NW12      30.05R
LUVERNE        SUNNY     43  37  81 CALM      30.09R
MARSHALL       SUNNY     46  37  71 NW7       30.06R
MONTEVIDEO     SUNNY     46  41  81 NW8       30.06R
PIPESTONE      SUNNY     45  37  76 CALM      30.07R
REDWOOD FALLS  SUNNY     45  38  76 NW8       30.04R
TRACY          SUNNY     50  40  68 NW7       30.06R
WINDOM         SUNNY     48  39  71 NW8       30.05R
WORTHINGTON    SUNNY     48  39  71 NW9       30.08R
$$

IAZ001>003-012>014-020>022-031-032-NEZ013-014-SDZ071-201500-
NORTHWEST IOWA

CITY           SKY/WX    TMP DP  RH WIND       PRES   REMARKS
CHEROKEE       SUNNY     38  38 100 CALM      30.08R
DENISON        SUNNY     41  41 100 CALM      30.05R
ESTHERVILLE    SUNNY     48  39  71 NW9       30.04R
LE MARS        SUNNY     39  37  93 CALM      30.09R
ORANGE CITY    SUNNY     45  39  81 NW6       30.08R
SHELDON        SUNNY     43  41  93 NW6       30.07R
SIOUX CITY     SUNNY     45  41  86 W6        30.10R
SPENCER        SUNNY     45  40  82 W6        30.07R
STORM LAKE     SUNNY     48  39  71 NW8       30.07R
$$

ABBREVIATIONS USED IN REMARKS
   TC - TEMPERATURE IN CELSIUS
  WCI - WIND CHILL INDEX
   HX - HEAT INDEX
  VSB - VISIBILITY



USA.gov is the U.S. government's official web portal to all federal, state and local government web resources and services.